PIMOHWEATHER Station Historical Data
Daily Summary for January 06, 2020 Units:  Metric    English   Both
Daily Weekly Monthly Yearly
  High: Low: Average:
Temperature: 33.0 °C 26.0 °C 28.5 °C
Dew Point: 23.0 °C 21.0 °C 22.1 °C
Humidity: 78% 57% 69%
Wind Speed: 31km/h 0km/h 10.4km/h
Wind Gust: 40km/h - -
Wind- - ESE
Pressure: 1015.0 hPa 1010.5 hPa -
Precipitation: 0.00 mm    
 
 
Tabular Data for January 06, 2020
Time Temperature Dew Point Pressure Wind Wind Speed Wind Gust Humidity Rainfall Rate (Hourly) solar
00:04 27.0 °C 23.0 °C 1013.7 hPa North 8 km/h 8 km/h 77% 0.00 mm 0.00 W/m2
00:09 27.0 °C 23.0 °C 1013.7 hPa North 6 km/h 8 km/h 77% 0.00 mm 0.00 W/m2
00:14 27.0 °C 23.0 °C 1013.7 hPa North 8 km/h 8 km/h 78% 0.00 mm 0.00 W/m2
00:19 27.0 °C 23.0 °C 1013.7 hPa NNW 7 km/h 8 km/h 78% 0.00 mm 0.00 W/m2
00:24 27.0 °C 23.0 °C 1013.7 hPa NNW 8 km/h 8 km/h 78% 0.00 mm 0.00 W/m2
00:29 27.0 °C 23.0 °C 1013.7 hPa NNW 8 km/h 12 km/h 78% 0.00 mm 0.00 W/m2
00:34 27.0 °C 22.0 °C 1013.7 hPa North 8 km/h 8 km/h 77% 0.00 mm 0.00 W/m2
00:39 27.0 °C 22.0 °C 1013.7 hPa North 8 km/h 12 km/h 77% 0.00 mm 0.00 W/m2
00:44 27.0 °C 22.0 °C 1013.7 hPa North 6 km/h 8 km/h 77% 0.00 mm 0.00 W/m2
00:49 27.0 °C 22.0 °C 1013.7 hPa North 5 km/h 8 km/h 77% 0.00 mm 0.00 W/m2
00:54 27.0 °C 22.0 °C 1013.7 hPa North 5 km/h 12 km/h 77% 0.00 mm 0.00 W/m2
00:59 27.0 °C 22.0 °C 1013.7 hPa North 10 km/h 12 km/h 77% 0.00 mm 0.00 W/m2
01:04 27.0 °C 22.0 °C 1013.7 hPa NNE 6 km/h 8 km/h 77% 0.00 mm 0.00 W/m2
01:09 27.0 °C 22.0 °C 1013.7 hPa NNE 7 km/h 8 km/h 77% 0.00 mm 0.00 W/m2
01:14 27.0 °C 22.0 °C 1013.7 hPa North 5 km/h 8 km/h 76% 0.00 mm 0.00 W/m2
01:19 27.0 °C 22.0 °C 1013.7 hPa North 8 km/h 12 km/h 77% 0.00 mm 0.00 W/m2
01:24 27.0 °C 22.0 °C 1013.7 hPa NNW 5 km/h 8 km/h 77% 0.00 mm 0.00 W/m2
01:29 27.0 °C 22.0 °C 1013.7 hPa NNW 7 km/h 8 km/h 77% 0.00 mm 0.00 W/m2
01:34 27.0 °C 22.0 °C 1013.3 hPa North 3 km/h 4 km/h 77% 0.00 mm 0.00 W/m2
01:39 27.0 °C 22.0 °C 1013.3 hPa North 4 km/h 4 km/h 77% 0.00 mm 0.00 W/m2
01:44 27.0 °C 22.0 °C 1013.3 hPa NE 1 km/h 4 km/h 76% 0.00 mm 0.00 W/m2
01:49 27.0 °C 22.0 °C 1013.0 hPa North 8 km/h 8 km/h 76% 0.00 mm 0.00 W/m2
01:54 27.0 °C 22.0 °C 1013.0 hPa North 6 km/h 8 km/h 77% 0.00 mm 0.00 W/m2
01:59 27.0 °C 22.0 °C 1013.0 hPa North 4 km/h 4 km/h 77% 0.00 mm 0.00 W/m2
02:04 27.0 °C 22.0 °C 1013.0 hPa North 4 km/h 4 km/h 77% 0.00 mm 0.00 W/m2
02:09 27.0 °C 22.0 °C 1013.0 hPa North 5 km/h 8 km/h 77% 0.00 mm 0.00 W/m2
02:14 27.0 °C 22.0 °C 1012.8 hPa North 2 km/h 4 km/h 77% 0.00 mm 0.00 W/m2
02:19 27.0 °C 22.0 °C 1012.6 hPa North 6 km/h 8 km/h 77% 0.00 mm 0.00 W/m2
02:24 27.0 °C 22.0 °C 1012.6 hPa NNW 5 km/h 8 km/h 77% 0.00 mm 0.00 W/m2
02:29 27.0 °C 22.0 °C 1012.6 hPa North 5 km/h 8 km/h 77% 0.00 mm 0.00 W/m2
02:34 27.0 °C 22.0 °C 1012.6 hPa North 5 km/h 8 km/h 77% 0.00 mm 0.00 W/m2
02:39 27.0 °C 22.0 °C 1012.6 hPa North 5 km/h 8 km/h 77% 0.00 mm 0.00 W/m2
02:44 27.0 °C 22.0 °C 1012.6 hPa North 3 km/h 4 km/h 77% 0.00 mm 0.00 W/m2
02:49 27.0 °C 22.0 °C 1012.3 hPa North 8 km/h 12 km/h 76% 0.00 mm 0.00 W/m2
02:54 27.0 °C 22.0 °C 1012.5 hPa North 7 km/h 12 km/h 76% 0.00 mm 0.00 W/m2
02:59 27.0 °C 22.0 °C 1012.6 hPa North 8 km/h 12 km/h 76% 0.00 mm 0.00 W/m2
03:04 27.0 °C 22.0 °C 1012.3 hPa North 8 km/h 16 km/h 77% 0.00 mm 0.00 W/m2
03:09 27.0 °C 22.0 °C 1012.5 hPa North 9 km/h 12 km/h 77% 0.00 mm 0.00 W/m2
03:14 27.0 °C 22.0 °C 1012.6 hPa North 7 km/h 8 km/h 77% 0.00 mm 0.00 W/m2
03:19 27.0 °C 22.0 °C 1012.3 hPa NNE 5 km/h 8 km/h 77% 0.00 mm 0.00 W/m2
03:24 27.0 °C 22.0 °C 1012.3 hPa NNE 7 km/h 8 km/h 77% 0.00 mm 0.00 W/m2
03:29 27.0 °C 22.0 °C 1012.6 hPa NNE 10 km/h 12 km/h 77% 0.00 mm 0.00 W/m2
03:34 26.0 °C 22.0 °C 1012.4 hPa NNE 11 km/h 12 km/h 78% 0.00 mm 0.00 W/m2
03:39 26.0 °C 22.0 °C 1012.6 hPa NNE 8 km/h 12 km/h 78% 0.00 mm 0.00 W/m2
03:44 26.0 °C 22.0 °C 1012.6 hPa NE 8 km/h 8 km/h 77% 0.00 mm 0.00 W/m2
03:49 26.0 °C 22.0 °C 1012.6 hPa North 3 km/h 4 km/h 77% 0.00 mm 0.00 W/m2
03:54 26.0 °C 22.0 °C 1012.6 hPa NNE 5 km/h 8 km/h 77% 0.00 mm 0.00 W/m2
03:59 26.0 °C 22.0 °C 1012.6 hPa NNW 4 km/h 4 km/h 77% 0.00 mm 0.00 W/m2
04:04 26.0 °C 22.0 °C 1012.6 hPa North 6 km/h 8 km/h 78% 0.00 mm 0.00 W/m2
04:09 26.0 °C 22.0 °C 1012.6 hPa North 6 km/h 8 km/h 78% 0.00 mm 0.00 W/m2
04:14 26.0 °C 22.0 °C 1012.6 hPa North 5 km/h 8 km/h 78% 0.00 mm 0.00 W/m2
04:19 26.0 °C 22.0 °C 1012.6 hPa North 8 km/h 8 km/h 77% 0.00 mm 0.00 W/m2
04:24 26.0 °C 22.0 °C 1012.9 hPa NNE 4 km/h 8 km/h 77% 0.00 mm 0.00 W/m2
04:29 26.0 °C 22.0 °C 1012.6 hPa NNE 6 km/h 8 km/h 77% 0.00 mm 0.00 W/m2
04:34 26.0 °C 22.0 °C 1012.8 hPa NNE 5 km/h 8 km/h 77% 0.00 mm 0.00 W/m2
04:39 27.0 °C 22.0 °C 1012.8 hPa NNE 3 km/h 4 km/h 77% 0.00 mm 0.00 W/m2
04:44 27.0 °C 22.0 °C 1012.9 hPa North 1 km/h 4 km/h 77% 0.00 mm 0.00 W/m2
04:49 27.0 °C 22.0 °C 1013.0 hPa NNW 3 km/h 4 km/h 77% 0.00 mm 0.00 W/m2
04:54 26.0 °C 22.0 °C 1013.0 hPa North 7 km/h 12 km/h 77% 0.00 mm 0.00 W/m2
04:59 26.0 °C 22.0 °C 1013.0 hPa NNW 8 km/h 8 km/h 77% 0.00 mm 0.00 W/m2
05:04 26.0 °C 22.0 °C 1012.9 hPa North 4 km/h 4 km/h 77% 0.00 mm 0.00 W/m2
05:09 26.0 °C 22.0 °C 1012.8 hPa Calm     77% 0.00 mm 0.00 W/m2
05:14 26.0 °C 22.0 °C 1013.0 hPa Calm     77% 0.00 mm 0.00 W/m2
05:19 26.0 °C 22.0 °C 1013.0 hPa Calm     77% 0.00 mm 0.00 W/m2
05:24 26.0 °C 22.0 °C 1013.0 hPa Calm     77% 0.00 mm 0.00 W/m2
05:29 26.0 °C 22.0 °C 1013.0 hPa Calm     78% 0.00 mm 0.00 W/m2
05:34 26.0 °C 22.0 °C 1013.2 hPa Calm     78% 0.00 mm 0.00 W/m2
05:39 26.0 °C 22.0 °C 1013.3 hPa Calm     78% 0.00 mm 0.00 W/m2
05:44 26.0 °C 22.0 °C 1013.3 hPa Calm     78% 0.00 mm 0.00 W/m2
05:49 26.0 °C 22.0 °C 1013.3 hPa NNW 5 km/h 8 km/h 77% 0.00 mm 0.00 W/m2
05:54 26.0 °C 22.0 °C 1013.6 hPa NNW 9 km/h 12 km/h 77% 0.00 mm 0.00 W/m2
05:59 26.0 °C 22.0 °C 1013.3 hPa North 7 km/h 8 km/h 78% 0.00 mm 0.00 W/m2
06:04 26.0 °C 22.0 °C 1013.6 hPa North 5 km/h 8 km/h 78% 0.00 mm 0.00 W/m2
06:09 26.0 °C 22.0 °C 1013.7 hPa NNW 4 km/h 8 km/h 78% 0.00 mm 0.00 W/m2
06:14 26.0 °C 22.0 °C 1013.5 hPa North 6 km/h 8 km/h 78% 0.00 mm 0.00 W/m2
06:19 26.0 °C 22.0 °C 1013.7 hPa North 5 km/h 8 km/h 78% 0.00 mm 0.00 W/m2
06:24 26.0 °C 22.0 °C 1013.7 hPa North 6 km/h 8 km/h 78% 0.00 mm 2.59 W/m2
06:29 26.0 °C 22.0 °C 1013.7 hPa NNE 5 km/h 8 km/h 78% 0.00 mm 5.65 W/m2
06:34 26.0 °C 22.0 °C 1013.7 hPa North 5 km/h 8 km/h 78% 0.00 mm 9.59 W/m2
06:39 26.0 °C 22.0 °C 1013.9 hPa NNE 5 km/h 8 km/h 78% 0.00 mm 12.45 W/m2
06:44 26.0 °C 22.0 °C 1013.7 hPa NNW 5 km/h 8 km/h 78% 0.00 mm 17.22 W/m2
06:49 26.0 °C 22.0 °C 1013.7 hPa North 5 km/h 8 km/h 78% 0.00 mm 20.05 W/m2
06:54 26.0 °C 22.0 °C 1014.0 hPa North 5 km/h 8 km/h 78% 0.00 mm 24.20 W/m2
06:59 26.0 °C 22.0 °C 1014.0 hPa NNW 3 km/h 4 km/h 78% 0.00 mm 24.63 W/m2
07:04 26.0 °C 22.0 °C 1014.0 hPa WNW 4 km/h 4 km/h 78% 0.00 mm 28.58 W/m2
07:09 26.0 °C 22.0 °C 1014.0 hPa NW 5 km/h 8 km/h 78% 0.00 mm 30.24 W/m2
07:14 26.0 °C 22.0 °C 1014.0 hPa NNW 3 km/h 4 km/h 78% 0.00 mm 40.70 W/m2
07:19 26.0 °C 22.0 °C 1014.0 hPa NNW 8 km/h 8 km/h 78% 0.00 mm 44.17 W/m2
07:24 27.0 °C 22.0 °C 1014.4 hPa North 6 km/h 8 km/h 77% 0.00 mm 46.74 W/m2
07:29 27.0 °C 22.0 °C 1014.4 hPa NNW 5 km/h 8 km/h 76% 0.00 mm 49.08 W/m2
07:34 27.0 °C 22.0 °C 1014.4 hPa NNE 3 km/h 4 km/h 75% 0.00 mm 50.36 W/m2
07:39 27.0 °C 22.0 °C 1014.3 hPa North 8 km/h 8 km/h 74% 0.00 mm 55.97 W/m2
07:44 27.0 °C 22.0 °C 1014.3 hPa North 10 km/h 12 km/h 74% 0.00 mm 57.81 W/m2
07:49 27.0 °C 22.0 °C 1014.3 hPa North 10 km/h 12 km/h 74% 0.00 mm 57.69 W/m2
07:54 27.0 °C 22.0 °C 1014.7 hPa NNW 10 km/h 12 km/h 75% 0.00 mm 44.70 W/m2
07:59 27.0 °C 22.0 °C 1014.7 hPa NW 9 km/h 12 km/h 75% 0.00 mm 54.77 W/m2
08:04 27.0 °C 22.0 °C 1014.7 hPa North 6 km/h 8 km/h 75% 0.00 mm 89.28 W/m2
08:09 27.0 °C 22.0 °C 1014.7 hPa NW 6 km/h 8 km/h 74% 0.00 mm 95.20 W/m2
08:14 27.0 °C 22.0 °C 1015.0 hPa NW 9 km/h 12 km/h 73% 0.00 mm 130.94 W/m2
08:19 28.0 °C 22.0 °C 1014.9 hPa NW 6 km/h 8 km/h 73% 0.00 mm 135.64 W/m2
08:24 28.0 °C 22.0 °C 1015.0 hPa NNE 3 km/h 4 km/h 72% 0.00 mm 107.60 W/m2
08:29 28.0 °C 22.0 °C 1015.0 hPa NNW 4 km/h 8 km/h 72% 0.00 mm 89.19 W/m2
08:34 28.0 °C 22.0 °C 1015.0 hPa North 3 km/h 4 km/h 71% 0.00 mm 67.78 W/m2
08:39 28.0 °C 22.0 °C 1015.0 hPa NNW 5 km/h 8 km/h 71% 0.00 mm 97.15 W/m2
08:44 28.0 °C 22.0 °C 1015.0 hPa NW 7 km/h 8 km/h 71% 0.00 mm 108.78 W/m2
08:49 28.0 °C 22.0 °C 1015.0 hPa NNW 8 km/h 8 km/h 71% 0.00 mm 108.31 W/m2
08:54 28.0 °C 22.0 °C 1015.0 hPa SSE 5 km/h 8 km/h 71% 0.00 mm 121.55 W/m2
08:59 29.0 °C 23.0 °C 1015.0 hPa SSE 4 km/h 4 km/h 70% 0.00 mm 229.30 W/m2
09:04 29.0 °C 23.0 °C 1015.0 hPa NNW 6 km/h 8 km/h 68% 0.00 mm 224.38 W/m2
09:09 29.0 °C 23.0 °C 1015.0 hPa North 7 km/h 8 km/h 69% 0.00 mm 200.01 W/m2
09:14 30.0 °C 23.0 °C 1015.0 hPa NNW 4 km/h 8 km/h 69% 0.00 mm 188.22 W/m2
09:19 31.0 °C 23.0 °C 1015.0 hPa South 6 km/h 8 km/h 66% 0.00 mm 207.99 W/m2
09:24 30.0 °C 23.0 °C 1015.0 hPa North 15 km/h 16 km/h 68% 0.00 mm 212.42 W/m2
09:29 31.0 °C 23.0 °C 1015.0 hPa SE 3 km/h 4 km/h 66% 0.00 mm 225.95 W/m2
09:34 31.0 °C 23.0 °C 1015.0 hPa North 11 km/h 12 km/h 65% 0.00 mm 234.81 W/m2
09:39 30.0 °C 23.0 °C 1015.0 hPa NNE 8 km/h 12 km/h 65% 0.00 mm 251.89 W/m2
09:44 31.0 °C 23.0 °C 1014.8 hPa ESE 9 km/h 12 km/h 65% 0.00 mm 255.43 W/m2
09:49 31.0 °C 23.0 °C 1014.9 hPa WNW 13 km/h 16 km/h 64% 0.00 mm 261.26 W/m2
09:54 31.0 °C 23.0 °C 1014.8 hPa NNE 6 km/h 12 km/h 63% 0.00 mm 270.92 W/m2
09:59 31.0 °C 23.0 °C 1014.6 hPa ENE 10 km/h 12 km/h 62% 0.00 mm 292.06 W/m2
10:04 31.0 °C 23.0 °C 1014.6 hPa NE 20 km/h 24 km/h 62% 0.00 mm 253.48 W/m2
10:09 30.0 °C 23.0 °C 1014.6 hPa NNE 18 km/h 20 km/h 63% 0.00 mm 297.30 W/m2
10:14 31.0 °C 23.0 °C 1014.3 hPa NNE 18 km/h 20 km/h 63% 0.00 mm 301.82 W/m2
10:19 31.0 °C 23.0 °C 1014.5 hPa NNE 13 km/h 20 km/h 62% 0.00 mm 303.05 W/m2
10:24 31.0 °C 23.0 °C 1014.5 hPa NE 14 km/h 16 km/h 61% 0.00 mm 307.79 W/m2
10:29 31.0 °C 22.0 °C 1014.3 hPa NNE 19 km/h 24 km/h 63% 0.00 mm 152.79 W/m2
10:34 31.0 °C 22.0 °C 1014.3 hPa NNE 23 km/h 24 km/h 62% 0.00 mm 327.95 W/m2
10:39 31.0 °C 22.0 °C 1014.3 hPa NE 13 km/h 24 km/h 62% 0.00 mm 358.00 W/m2
10:44 31.0 °C 23.0 °C 1014.3 hPa East 10 km/h 16 km/h 62% 0.00 mm 367.37 W/m2
10:49 32.0 °C 23.0 °C 1013.9 hPa SSW 8 km/h 12 km/h 60% 0.00 mm 360.10 W/m2
10:54 31.0 °C 22.0 °C 1014.0 hPa NNE 24 km/h 28 km/h 60% 0.00 mm 422.30 W/m2
10:59 32.0 °C 23.0 °C 1013.9 hPa NE 23 km/h 28 km/h 60% 0.00 mm 433.11 W/m2
11:04 32.0 °C 23.0 °C 1013.9 hPa NNE 30 km/h 32 km/h 60% 0.00 mm 441.46 W/m2
11:09 32.0 °C 23.0 °C 1013.9 hPa ENE 12 km/h 20 km/h 58% 0.00 mm 480.63 W/m2
11:14 32.0 °C 23.0 °C 1013.6 hPa ENE 11 km/h 20 km/h 57% 0.00 mm 477.79 W/m2
11:19 32.0 °C 23.0 °C 1013.6 hPa ENE 14 km/h 16 km/h 57% 0.00 mm 486.70 W/m2
11:24 33.0 °C 23.0 °C 1013.5 hPa ENE 18 km/h 24 km/h 58% 0.00 mm 462.05 W/m2
11:29 32.0 °C 22.0 °C 1013.2 hPa NE 19 km/h 24 km/h 59% 0.00 mm 384.87 W/m2
11:34 32.0 °C 23.0 °C 1013.2 hPa NNE 14 km/h 20 km/h 60% 0.00 mm 357.73 W/m2
11:39 32.0 °C 23.0 °C 1013.2 hPa North 13 km/h 16 km/h 60% 0.00 mm 442.39 W/m2
11:44 32.0 °C 23.0 °C 1012.9 hPa North 16 km/h 20 km/h 61% 0.00 mm 425.06 W/m2
11:49 31.0 °C 23.0 °C 1012.9 hPa North 14 km/h 16 km/h 61% 0.00 mm 436.66 W/m2
11:54 32.0 °C 23.0 °C 1012.9 hPa North 18 km/h 20 km/h 60% 0.00 mm 445.59 W/m2
11:59 31.0 °C 22.0 °C 1012.8 hPa NNE 14 km/h 16 km/h 60% 0.00 mm 178.51 W/m2
12:04 31.0 °C 22.0 °C 1012.6 hPa North 15 km/h 20 km/h 61% 0.00 mm 139.51 W/m2
12:09 31.0 °C 22.0 °C 1012.6 hPa NE 18 km/h 20 km/h 61% 0.00 mm 139.90 W/m2
12:14 31.0 °C 22.0 °C 1012.6 hPa NNE 11 km/h 20 km/h 61% 0.00 mm 121.72 W/m2
12:19 31.0 °C 22.0 °C 1012.6 hPa NE 12 km/h 16 km/h 60% 0.00 mm 352.72 W/m2
12:24 31.0 °C 22.0 °C 1012.2 hPa NNE 18 km/h 24 km/h 61% 0.00 mm 187.39 W/m2
12:29 31.0 °C 23.0 °C 1012.2 hPa NNE 15 km/h 20 km/h 61% 0.00 mm 465.78 W/m2
12:34 32.0 °C 23.0 °C 1012.2 hPa NNE 14 km/h 20 km/h 60% 0.00 mm 493.03 W/m2
12:39 32.0 °C 23.0 °C 1012.2 hPa North 17 km/h 20 km/h 61% 0.00 mm 494.87 W/m2
12:44 31.0 °C 23.0 °C 1012.0 hPa North 22 km/h 24 km/h 62% 0.00 mm 292.11 W/m2
12:49 31.0 °C 23.0 °C 1012.1 hPa NNE 20 km/h 24 km/h 64% 0.00 mm 152.87 W/m2
12:54 31.0 °C 23.0 °C 1011.9 hPa North 19 km/h 24 km/h 64% 0.00 mm 422.62 W/m2
12:59 31.0 °C 23.0 °C 1011.7 hPa NNE 19 km/h 20 km/h 63% 0.00 mm 367.25 W/m2
13:04 31.0 °C 23.0 °C 1011.6 hPa NNE 22 km/h 28 km/h 62% 0.00 mm 193.24 W/m2
13:09 31.0 °C 23.0 °C 1011.6 hPa North 21 km/h 32 km/h 62% 0.00 mm 238.80 W/m2
13:14 31.0 °C 23.0 °C 1011.6 hPa NNE 20 km/h 24 km/h 61% 0.00 mm 204.98 W/m2
13:19 31.0 °C 23.0 °C 1011.6 hPa NNE 19 km/h 28 km/h 62% 0.00 mm 124.16 W/m2
13:24 31.0 °C 23.0 °C 1011.6 hPa NNE 21 km/h 24 km/h 62% 0.00 mm 325.02 W/m2
13:29 31.0 °C 23.0 °C 1011.6 hPa North 20 km/h 24 km/h 63% 0.00 mm 463.85 W/m2
13:34 31.0 °C 23.0 °C 1011.2 hPa North 19 km/h 24 km/h 64% 0.00 mm 297.17 W/m2
13:39 31.0 °C 23.0 °C 1011.2 hPa NNE 22 km/h 24 km/h 64% 0.00 mm 363.21 W/m2
13:44 31.0 °C 23.0 °C 1011.2 hPa NNE 15 km/h 24 km/h 62% 0.00 mm 422.76 W/m2
13:49 31.0 °C 23.0 °C 1011.2 hPa NNE 28 km/h 32 km/h 63% 0.00 mm 421.79 W/m2
13:54 31.0 °C 23.0 °C 1010.9 hPa North 26 km/h 32 km/h 62% 0.00 mm 439.06 W/m2
13:59 31.0 °C 23.0 °C 1011.2 hPa NNE 21 km/h 28 km/h 62% 0.00 mm 443.32 W/m2
14:04 31.0 °C 23.0 °C 1011.1 hPa North 15 km/h 20 km/h 62% 0.00 mm 424.26 W/m2
14:09 31.0 °C 23.0 °C 1010.9 hPa North 15 km/h 20 km/h 62% 0.00 mm 456.75 W/m2
14:14 32.0 °C 23.0 °C 1010.9 hPa NNE 5 km/h 8 km/h 62% 0.00 mm 219.74 W/m2
14:19 32.0 °C 23.0 °C 1010.9 hPa North 7 km/h 12 km/h 61% 0.00 mm 169.58 W/m2
14:24 31.0 °C 23.0 °C 1010.8 hPa NE 12 km/h 16 km/h 62% 0.00 mm 114.81 W/m2
14:29 31.0 °C 23.0 °C 1010.8 hPa ESE 17 km/h 20 km/h 61% 0.00 mm 110.54 W/m2
14:34 31.0 °C 23.0 °C 1010.9 hPa NNE 10 km/h 20 km/h 62% 0.00 mm 110.51 W/m2
14:39 31.0 °C 23.0 °C 1010.9 hPa NNE 19 km/h 20 km/h 63% 0.00 mm 359.52 W/m2
14:44 31.0 °C 23.0 °C 1010.9 hPa NNE 13 km/h 16 km/h 62% 0.00 mm 354.70 W/m2
14:49 31.0 °C 23.0 °C 1010.9 hPa NNE 10 km/h 12 km/h 62% 0.00 mm 367.79 W/m2
14:54 31.0 °C 23.0 °C 1010.9 hPa ENE 13 km/h 16 km/h 61% 0.00 mm 402.04 W/m2
14:59 32.0 °C 23.0 °C 1010.7 hPa NNE 18 km/h 24 km/h 61% 0.00 mm 410.41 W/m2
15:04 32.0 °C 23.0 °C 1010.7 hPa North 29 km/h 36 km/h 60% 0.00 mm 360.35 W/m2
15:09 31.0 °C 22.0 °C 1010.5 hPa NNE 31 km/h 36 km/h 59% 0.00 mm 359.49 W/m2
15:14 31.0 °C 22.0 °C 1010.5 hPa NNE 25 km/h 32 km/h 60% 0.00 mm 359.03 W/m2
15:19 32.0 °C 23.0 °C 1010.8 hPa ENE 11 km/h 16 km/h 60% 0.00 mm 357.85 W/m2
15:24 32.0 °C 23.0 °C 1010.5 hPa NNE 18 km/h 24 km/h 58% 0.00 mm 348.06 W/m2
15:29 32.0 °C 23.0 °C 1010.7 hPa NNE 24 km/h 28 km/h 60% 0.00 mm 335.97 W/m2
15:34 31.0 °C 23.0 °C 1010.5 hPa NNE 19 km/h 20 km/h 60% 0.00 mm 333.45 W/m2
15:39 31.0 °C 23.0 °C 1010.8 hPa NNE 22 km/h 24 km/h 60% 0.00 mm 324.49 W/m2
15:44 31.0 °C 23.0 °C 1010.8 hPa NNE 13 km/h 20 km/h 60% 0.00 mm 317.31 W/m2
15:49 31.0 °C 23.0 °C 1010.7 hPa NNE 17 km/h 20 km/h 61% 0.00 mm 309.90 W/m2
15:54 31.0 °C 23.0 °C 1010.9 hPa NNE 17 km/h 20 km/h 60% 0.00 mm 298.89 W/m2
15:59 31.0 °C 22.0 °C 1010.9 hPa NNE 18 km/h 24 km/h 60% 0.00 mm 298.19 W/m2
16:04 31.0 °C 22.0 °C 1010.9 hPa NNE 26 km/h 28 km/h 60% 0.00 mm 288.45 W/m2
16:09 31.0 °C 22.0 °C 1010.9 hPa NNE 27 km/h 32 km/h 61% 0.00 mm 272.44 W/m2
16:14 31.0 °C 22.0 °C 1010.9 hPa NNE 17 km/h 20 km/h 61% 0.00 mm 267.71 W/m2
16:19 31.0 °C 23.0 °C 1010.9 hPa NNE 18 km/h 20 km/h 62% 0.00 mm 256.39 W/m2
16:24 31.0 °C 23.0 °C 1010.9 hPa NE 21 km/h 32 km/h 62% 0.00 mm 247.24 W/m2
16:29 31.0 °C 23.0 °C 1010.9 hPa NNE 16 km/h 20 km/h 62% 0.00 mm 237.59 W/m2
16:34 31.0 °C 22.0 °C 1011.2 hPa NNE 22 km/h 28 km/h 62% 0.00 mm 214.53 W/m2
16:39 30.0 °C 23.0 °C 1011.1 hPa NNE 26 km/h 32 km/h 63% 0.00 mm 177.70 W/m2
16:44 30.0 °C 23.0 °C 1011.2 hPa North 19 km/h 24 km/h 64% 0.00 mm 175.00 W/m2
16:49 30.0 °C 23.0 °C 1011.2 hPa NNE 25 km/h 28 km/h 64% 0.00 mm 57.99 W/m2
16:54 30.0 °C 23.0 °C 1011.2 hPa North 24 km/h 24 km/h 64% 0.00 mm 52.58 W/m2
16:59 30.0 °C 22.0 °C 1011.6 hPa NNE 30 km/h 36 km/h 65% 0.00 mm 47.91 W/m2
17:04 30.0 °C 22.0 °C 1011.6 hPa NNE 30 km/h 40 km/h 65% 0.00 mm 43.16 W/m2
17:09 30.0 °C 22.0 °C 1011.6 hPa NNE 20 km/h 24 km/h 66% 0.00 mm 38.35 W/m2
17:14 29.0 °C 22.0 °C 1011.6 hPa NNE 23 km/h 24 km/h 66% 0.00 mm 32.87 W/m2
17:19 29.0 °C 22.0 °C 1011.6 hPa NNE 24 km/h 28 km/h 67% 0.00 mm 27.85 W/m2
17:24 29.0 °C 22.0 °C 1011.9 hPa NNE 18 km/h 24 km/h 67% 0.00 mm 22.15 W/m2
17:29 29.0 °C 22.0 °C 1011.7 hPa NNE 18 km/h 20 km/h 67% 0.00 mm 15.26 W/m2
17:34 29.0 °C 22.0 °C 1011.9 hPa NNE 13 km/h 16 km/h 67% 0.00 mm 9.31 W/m2
17:39 29.0 °C 22.0 °C 1011.9 hPa NNE 15 km/h 20 km/h 67% 0.00 mm 5.63 W/m2
17:44 29.0 °C 22.0 °C 1011.9 hPa NNE 16 km/h 20 km/h 67% 0.00 mm 2.75 W/m2
17:49 29.0 °C 22.0 °C 1011.9 hPa NNE 17 km/h 20 km/h 67% 0.00 mm 0.06 W/m2
17:54 29.0 °C 22.0 °C 1011.9 hPa North 26 km/h 28 km/h 67% 0.00 mm 0.00 W/m2
17:59 29.0 °C 22.0 °C 1011.9 hPa NNE 22 km/h 24 km/h 66% 0.00 mm 0.00 W/m2
18:04 29.0 °C 22.0 °C 1012.2 hPa NNE 18 km/h 20 km/h 66% 0.00 mm 0.00 W/m2
18:09 28.0 °C 21.0 °C 1012.3 hPa NNE 17 km/h 20 km/h 66% 0.00 mm 0.00 W/m2
18:14 28.0 °C 21.0 °C 1012.3 hPa NNE 14 km/h 20 km/h 66% 0.00 mm 0.00 W/m2
18:19 28.0 °C 21.0 °C 1012.3 hPa NNE 14 km/h 16 km/h 66% 0.00 mm 0.00 W/m2
18:24 28.0 °C 21.0 °C 1012.6 hPa NNE 12 km/h 12 km/h 66% 0.00 mm 0.00 W/m2
18:29 28.0 °C 21.0 °C 1012.6 hPa NNE 13 km/h 20 km/h 66% 0.00 mm 0.00 W/m2
18:34 28.0 °C 21.0 °C 1012.5 hPa NNE 6 km/h 12 km/h 66% 0.00 mm 0.00 W/m2
18:39 28.0 °C 22.0 °C 1012.6 hPa North 11 km/h 16 km/h 67% 0.00 mm 0.00 W/m2
18:44 28.0 °C 21.0 °C 1012.6 hPa North 18 km/h 24 km/h 67% 0.00 mm 0.00 W/m2
18:49 28.0 °C 21.0 °C 1012.6 hPa NNE 13 km/h 24 km/h 67% 0.00 mm 0.00 W/m2
18:54 28.0 °C 21.0 °C 1012.6 hPa North 13 km/h 16 km/h 67% 0.00 mm 0.00 W/m2
18:59 28.0 °C 21.0 °C 1012.8 hPa NNE 10 km/h 16 km/h 68% 0.00 mm 0.00 W/m2
19:04 28.0 °C 22.0 °C 1012.9 hPa North 13 km/h 16 km/h 68% 0.00 mm 0.00 W/m2
19:09 28.0 °C 21.0 °C 1012.9 hPa NNE 10 km/h 16 km/h 68% 0.00 mm 0.00 W/m2
19:14 28.0 °C 22.0 °C 1012.9 hPa NE 9 km/h 12 km/h 68% 0.00 mm 0.00 W/m2
19:19 28.0 °C 22.0 °C 1013.1 hPa NNE 13 km/h 16 km/h 68% 0.00 mm 0.00 W/m2
19:24 28.0 °C 21.0 °C 1013.3 hPa NE 8 km/h 12 km/h 67% 0.00 mm 0.00 W/m2
19:29 28.0 °C 22.0 °C 1013.3 hPa NNE 9 km/h 12 km/h 68% 0.00 mm 0.00 W/m2
19:34 28.0 °C 21.0 °C 1013.3 hPa NE 4 km/h 8 km/h 68% 0.00 mm 0.00 W/m2
19:39 28.0 °C 21.0 °C 1013.3 hPa NNE 9 km/h 12 km/h 68% 0.00 mm 0.00 W/m2
19:44 28.0 °C 22.0 °C 1013.3 hPa NNW 6 km/h 8 km/h 70% 0.00 mm 0.00 W/m2
19:49 28.0 °C 22.0 °C 1013.3 hPa North 6 km/h 8 km/h 70% 0.00 mm 0.00 W/m2
19:54 28.0 °C 22.0 °C 1013.3 hPa North 8 km/h 12 km/h 71% 0.00 mm 0.00 W/m2
19:59 28.0 °C 22.0 °C 1013.3 hPa North 6 km/h 8 km/h 71% 0.00 mm 0.00 W/m2
20:04 28.0 °C 22.0 °C 1013.3 hPa North 9 km/h 12 km/h 71% 0.00 mm 0.00 W/m2
20:09 28.0 °C 22.0 °C 1013.3 hPa NNE 7 km/h 8 km/h 71% 0.00 mm 0.00 W/m2
20:14 27.0 °C 21.0 °C 1013.3 hPa North 4 km/h 8 km/h 70% 0.00 mm 0.00 W/m2
20:19 28.0 °C 22.0 °C 1013.5 hPa NNE 5 km/h 8 km/h 71% 0.00 mm 0.00 W/m2
20:24 28.0 °C 22.0 °C 1013.6 hPa NNE 10 km/h 12 km/h 70% 0.00 mm 0.00 W/m2
20:29 28.0 °C 22.0 °C 1013.7 hPa NNE 13 km/h 16 km/h 69% 0.00 mm 0.00 W/m2
20:34 28.0 °C 22.0 °C 1013.5 hPa NNE 16 km/h 20 km/h 69% 0.00 mm 0.00 W/m2
20:39 28.0 °C 22.0 °C 1013.7 hPa NE 13 km/h 20 km/h 69% 0.00 mm 0.00 W/m2
20:44 28.0 °C 21.0 °C 1013.7 hPa NNE 9 km/h 12 km/h 69% 0.00 mm 0.00 W/m2
20:49 28.0 °C 21.0 °C 1013.7 hPa North 10 km/h 12 km/h 69% 0.00 mm 0.00 W/m2
20:54 28.0 °C 21.0 °C 1013.7 hPa NNE 8 km/h 12 km/h 69% 0.00 mm 0.00 W/m2
20:59 28.0 °C 21.0 °C 1013.7 hPa NNE 5 km/h 8 km/h 69% 0.00 mm 0.00 W/m2
21:04 28.0 °C 21.0 °C 1013.7 hPa NNE 11 km/h 12 km/h 69% 0.00 mm 0.00 W/m2
21:09 28.0 °C 21.0 °C 1013.7 hPa NNE 10 km/h 12 km/h 69% 0.00 mm 0.00 W/m2
21:14 28.0 °C 21.0 °C 1013.7 hPa NNE 10 km/h 12 km/h 69% 0.00 mm 0.00 W/m2
21:19 28.0 °C 21.0 °C 1013.7 hPa NNE 10 km/h 16 km/h 69% 0.00 mm 0.00 W/m2
21:24 28.0 °C 21.0 °C 1013.7 hPa NNE 13 km/h 16 km/h 69% 0.00 mm 0.00 W/m2
21:29 27.0 °C 21.0 °C 1013.7 hPa NE 7 km/h 12 km/h 70% 0.00 mm 0.00 W/m2
21:34 27.0 °C 21.0 °C 1013.7 hPa SSE 7 km/h 8 km/h 70% 0.00 mm 0.00 W/m2
21:39 27.0 °C 21.0 °C 1013.7 hPa North 4 km/h 8 km/h 70% 0.00 mm 0.00 W/m2
21:44 27.0 °C 21.0 °C 1013.9 hPa ENE 4 km/h 4 km/h 70% 0.00 mm 0.00 W/m2
21:49 27.0 °C 21.0 °C 1013.7 hPa ENE 3 km/h 8 km/h 70% 0.00 mm 0.00 W/m2
21:54 27.0 °C 21.0 °C 1013.9 hPa North 3 km/h 4 km/h 70% 0.00 mm 0.00 W/m2
21:59 27.0 °C 21.0 °C 1013.9 hPa ESE 3 km/h 4 km/h 70% 0.00 mm 0.00 W/m2
22:04 27.0 °C 21.0 °C 1013.9 hPa NE 6 km/h 8 km/h 70% 0.00 mm 0.00 W/m2
22:09 27.0 °C 21.0 °C 1013.9 hPa NE 6 km/h 8 km/h 70% 0.00 mm 0.00 W/m2
22:14 27.0 °C 21.0 °C 1013.7 hPa NE 10 km/h 12 km/h 70% 0.00 mm 0.00 W/m2
22:19 27.0 °C 21.0 °C 1013.7 hPa ESE 3 km/h 8 km/h 70% 0.00 mm 0.00 W/m2
22:24 27.0 °C 21.0 °C 1013.7 hPa NE 3 km/h 4 km/h 70% 0.00 mm 0.00 W/m2
22:29 27.0 °C 21.0 °C 1013.7 hPa NNE 7 km/h 8 km/h 70% 0.00 mm 0.00 W/m2
22:34 27.0 °C 21.0 °C 1013.7 hPa NE 5 km/h 8 km/h 70% 0.00 mm 0.00 W/m2
22:39 27.0 °C 21.0 °C 1013.7 hPa NNE 8 km/h 8 km/h 70% 0.00 mm 0.00 W/m2
22:44 27.0 °C 21.0 °C 1013.7 hPa NE 3 km/h 8 km/h 70% 0.00 mm 0.00 W/m2
22:49 27.0 °C 21.0 °C 1013.7 hPa ESE 1 km/h 4 km/h 70% 0.00 mm 0.00 W/m2
22:54 27.0 °C 21.0 °C 1013.7 hPa ESE 4 km/h 8 km/h 70% 0.00 mm 0.00 W/m2
22:59 27.0 °C 21.0 °C 1013.7 hPa ESE 5 km/h 8 km/h 70% 0.00 mm 0.00 W/m2
23:04 27.0 °C 21.0 °C 1013.7 hPa SE 2 km/h 4 km/h 71% 0.00 mm 0.00 W/m2
23:09 27.0 °C 21.0 °C 1013.7 hPa East 6 km/h 8 km/h 71% 0.00 mm 0.00 W/m2
23:14 27.0 °C 21.0 °C 1013.7 hPa ESE 5 km/h 8 km/h 71% 0.00 mm 0.00 W/m2
23:19 27.0 °C 21.0 °C 1013.7 hPa Calm     71% 0.00 mm 0.00 W/m2
23:24 27.0 °C 21.0 °C 1013.7 hPa ENE 2 km/h 4 km/h 71% 0.00 mm 0.00 W/m2
23:29 27.0 °C 21.0 °C 1013.5 hPa East 3 km/h 4 km/h 71% 0.00 mm 0.00 W/m2
23:34 27.0 °C 21.0 °C 1013.5 hPa ESE 6 km/h 8 km/h 70% 0.00 mm 0.00 W/m2
23:39 27.0 °C 21.0 °C 1013.7 hPa ESE 3 km/h 8 km/h 70% 0.00 mm 0.00 W/m2
23:44 27.0 °C 21.0 °C 1013.7 hPa ESE 3 km/h 8 km/h 71% 0.00 mm 0.00 W/m2
23:49 27.0 °C 21.0 °C 1013.7 hPa SE 2 km/h 4 km/h 71% 0.00 mm 0.00 W/m2
23:54 27.0 °C 21.0 °C 1013.7 hPa NNE 2 km/h 4 km/h 71% 0.00 mm 0.00 W/m2
23:59 27.0 °C 22.0 °C 1013.6 hPa NW 6 km/h 8 km/h 73% 0.00 mm 0.00 W/m2
PIMOHWEATHER Philippines
Compliments of Weather Underground - 2 mb